Time,TemperatureF,DewpointF,PressureIn,WindDirection,WindDirectionDegrees,WindSpeedMPH,WindSpeedGustMPH,Humidity,HourlyPrecipIn,Conditions,Clouds,dailyrainin,SoftwareType,DateUTC
2013-01-03 00:02:00,40.0,8.0,-100.00,NE,37,13.0,17.0,26,-99.99,,,-99.99,,2013-01-03 08:02:00,
2013-01-03 00:11:00,40.0,9.0,-100.00,NE,43,13.0,16.0,27,-99.99,,,-99.99,,2013-01-03 08:11:00,
2013-01-03 00:22:00,40.0,9.0,-100.00,NE,43,13.0,17.0,27,-99.99,,,-99.99,,2013-01-03 08:22:00,
2013-01-03 00:32:00,40.0,8.0,-100.00,NE,50,14.0,18.0,26,-99.99,,,-99.99,,2013-01-03 08:32:00,
2013-01-03 00:42:00,40.0,8.0,-100.00,NE,43,14.0,20.0,26,-99.99,,,-99.99,,2013-01-03 08:42:00,
2013-01-03 00:52:00,42.0,8.0,-100.00,NE,42,15.0,21.0,24,-99.99,,,-99.99,,2013-01-03 08:52:00,
2013-01-03 01:02:00,43.0,7.0,-100.00,NE,43,12.0,16.0,22,-99.99,,,-99.99,,2013-01-03 09:02:00,
2013-01-03 01:11:00,43.0,7.0,-100.00,NE,45,13.0,18.0,22,-99.99,,,-99.99,,2013-01-03 09:11:00,
2013-01-03 01:22:00,43.0,8.0,-100.00,NE,45,15.0,21.0,23,-99.99,,,-99.99,,2013-01-03 09:22:00,
2013-01-03 01:33:00,42.0,8.0,-100.00,NE,41,18.0,23.0,24,-99.99,,,-99.99,,2013-01-03 09:33:00,
2013-01-03 01:42:00,42.0,8.0,-100.00,NE,41,18.0,23.0,24,-99.99,,,-99.99,,2013-01-03 09:42:00,
2013-01-03 01:52:00,41.0,7.0,-100.00,NE,40,16.0,21.0,24,-99.99,,,-99.99,,2013-01-03 09:52:00,
2013-01-03 02:02:00,41.0,8.0,-100.00,NE,35,16.0,19.0,25,-99.99,,,-99.99,,2013-01-03 10:02:00,
2013-01-03 02:12:00,40.0,7.0,-100.00,NE,36,17.0,22.0,25,-99.99,,,-99.99,,2013-01-03 10:12:00,
2013-01-03 02:22:00,41.0,8.0,-100.00,NE,39,17.0,22.0,25,-99.99,,,-99.99,,2013-01-03 10:22:00,
2013-01-03 02:32:00,41.0,7.0,-100.00,NE,38,17.0,21.0,24,-99.99,,,-99.99,,2013-01-03 10:32:00,
2013-01-03 02:42:00,41.0,7.0,-100.00,NE,42,15.0,21.0,24,-99.99,,,-99.99,,2013-01-03 10:42:00,
2013-01-03 02:52:00,41.0,8.0,-100.00,NE,34,15.0,21.0,25,-99.99,,,-99.99,,2013-01-03 10:52:00,
2013-01-03 03:02:00,42.0,6.0,-100.00,NE,36,17.0,26.0,22,-99.99,,,-99.99,,2013-01-03 11:02:00,
2013-01-03 03:11:00,42.0,6.0,-100.00,NE,38,14.0,21.0,22,-99.99,,,-99.99,,2013-01-03 11:11:00,
2013-01-03 03:22:00,42.0,6.0,-100.00,NE,40,12.0,18.0,22,-99.99,,,-99.99,,2013-01-03 11:22:00,
2013-01-03 03:32:00,42.0,7.0,-100.00,NE,43,13.0,17.0,23,-99.99,,,-99.99,,2013-01-03 11:32:00,
2013-01-03 03:42:00,42.0,6.0,-100.00,NE,40,16.0,22.0,22,-99.99,,,-99.99,,2013-01-03 11:42:00,
2013-01-03 03:52:00,43.0,6.0,-100.00,NE,47,15.0,22.0,21,-99.99,,,-99.99,,2013-01-03 11:52:00,
2013-01-03 04:02:00,43.0,6.0,-100.00,NE,47,15.0,22.0,21,-99.99,,,-99.99,,2013-01-03 12:02:00,
2013-01-03 04:12:00,43.0,6.0,-100.00,NE,42,15.0,19.0,21,-99.99,,,-99.99,,2013-01-03 12:12:00,
2013-01-03 04:22:00,43.0,6.0,-100.00,NE,40,17.0,23.0,21,-99.99,,,-99.99,,2013-01-03 12:22:00,
2013-01-03 04:32:00,43.0,7.0,-100.00,NE,46,16.0,21.0,22,-99.99,,,-99.99,,2013-01-03 12:32:00,
2013-01-03 04:42:00,42.0,6.0,-100.00,NE,41,14.0,20.0,22,-99.99,,,-99.99,,2013-01-03 12:42:00,
2013-01-03 04:52:00,42.0,6.0,-100.00,NE,39,17.0,24.0,22,-99.99,,,-99.99,,2013-01-03 12:52:00,
2013-01-03 05:02:00,42.0,6.0,-100.00,NE,39,17.0,24.0,22,-99.99,,,-99.99,,2013-01-03 13:02:00,
2013-01-03 05:12:00,42.0,6.0,-100.00,NE,36,16.0,22.0,22,-99.99,,,-99.99,,2013-01-03 13:12:00,
2013-01-03 05:22:00,42.0,6.0,-100.00,NE,48,16.0,21.0,22,-99.99,,,-99.99,,2013-01-03 13:22:00,
2013-01-03 05:32:00,43.0,7.0,-100.00,ENE,62,15.0,22.0,22,-99.99,,,-99.99,,2013-01-03 13:32:00,
2013-01-03 05:42:00,43.0,7.0,-100.00,ENE,74,14.0,21.0,22,-99.99,,,-99.99,,2013-01-03 13:42:00,
2013-01-03 05:52:00,42.0,7.0,-100.00,ENE,72,12.0,16.0,23,-99.99,,,-99.99,,2013-01-03 13:52:00,
2013-01-03 06:02:00,42.0,7.0,-100.00,ENE,73,14.0,21.0,23,-99.99,,,-99.99,,2013-01-03 14:02:00,
2013-01-03 06:12:00,43.0,7.0,-100.00,ENE,71,14.0,23.0,22,-99.99,,,-99.99,,2013-01-03 14:12:00,
2013-01-03 06:22:00,43.0,6.0,-100.00,ENE,60,13.0,21.0,21,-99.99,,,-99.99,,2013-01-03 14:22:00,
2013-01-03 06:32:00,43.0,7.0,-100.00,NE,44,8.0,21.0,22,-99.99,,,-99.99,,2013-01-03 14:32:00,
2013-01-03 06:42:00,43.0,7.0,-100.00,NE,44,8.0,21.0,22,-99.99,,,-99.99,,2013-01-03 14:42:00,
2013-01-03 06:53:00,43.0,7.0,-100.00,NNE,33,9.0,17.0,22,-99.99,,,-99.99,,2013-01-03 14:53:00,
2013-01-03 07:02:00,42.0,7.0,-100.00,ENE,70,7.0,16.0,23,-99.99,,,-99.99,,2013-01-03 15:02:00,
2013-01-03 07:12:00,43.0,7.0,-100.00,NE,40,13.0,26.0,22,-99.99,,,-99.99,,2013-01-03 15:12:00,
2013-01-03 07:22:00,42.0,7.0,-100.00,NE,34,15.0,23.0,23,-99.99,,,-99.99,,2013-01-03 15:22:00,
2013-01-03 07:33:00,42.0,7.0,-100.00,NNE,33,19.0,26.0,23,-99.99,,,-99.99,,2013-01-03 15:33:00,
2013-01-03 07:42:00,42.0,7.0,-100.00,NNE,33,19.0,26.0,23,-99.99,,,-99.99,,2013-01-03 15:42:00,
2013-01-03 07:53:00,42.0,7.0,-100.00,NE,41,19.0,29.0,23,-99.99,,,-99.99,,2013-01-03 15:53:00,
2013-01-03 08:02:00,42.0,7.0,-100.00,NE,42,18.0,27.0,23,-99.99,,,-99.99,,2013-01-03 16:02:00,
2013-01-03 08:12:00,43.0,7.0,-100.00,NE,41,17.0,26.0,22,-99.99,,,-99.99,,2013-01-03 16:12:00,
2013-01-03 08:22:00,43.0,7.0,-100.00,NE,48,16.0,22.0,22,-99.99,,,-99.99,,2013-01-03 16:22:00,
2013-01-03 08:33:00,44.0,8.0,-100.00,NE,45,16.0,24.0,22,-99.99,,,-99.99,,2013-01-03 16:33:00,
2013-01-03 08:42:00,44.0,8.0,-100.00,NE,45,16.0,24.0,22,-99.99,,,-99.99,,2013-01-03 16:42:00,
2013-01-03 08:52:00,44.0,8.0,-100.00,NE,49,17.0,25.0,22,-99.99,,,-99.99,,2013-01-03 16:52:00,
2013-01-03 09:02:00,44.0,8.0,-100.00,NE,42,18.0,27.0,22,-99.99,,,-99.99,,2013-01-03 17:02:00,
2013-01-03 09:12:00,44.0,7.0,-100.00,NE,41,18.0,26.0,21,-99.99,,,-99.99,,2013-01-03 17:12:00,
2013-01-03 09:22:00,45.0,7.0,-100.00,NE,44,16.0,24.0,21,-99.99,,,-99.99,,2013-01-03 17:22:00,
2013-01-03 09:32:00,45.0,7.0,-100.00,NE,42,15.0,23.0,21,-99.99,,,-99.99,,2013-01-03 17:32:00,
2013-01-03 09:42:00,45.0,7.0,-100.00,NE,48,16.0,24.0,21,-99.99,,,-99.99,,2013-01-03 17:42:00,
2013-01-03 09:52:00,45.0,7.0,-100.00,NE,51,15.0,23.0,21,-99.99,,,-99.99,,2013-01-03 17:52:00,
2013-01-03 10:02:00,45.0,7.0,-100.00,ENE,57,18.0,26.0,21,-99.99,,,-99.99,,2013-01-03 18:02:00,
2013-01-03 10:12:00,45.0,7.0,-100.00,NE,50,19.0,26.0,21,-99.99,,,-99.99,,2013-01-03 18:12:00,
2013-01-03 10:22:00,46.0,7.0,-100.00,NE,51,17.0,26.0,20,-99.99,,,-99.99,,2013-01-03 18:22:00,
2013-01-03 10:33:00,45.0,6.0,-100.00,NE,51,19.0,26.0,20,-99.99,,,-99.99,,2013-01-03 18:33:00,
2013-01-03 10:42:00,45.0,6.0,-100.00,NE,54,19.0,27.0,20,-99.99,,,-99.99,,2013-01-03 18:42:00,
2013-01-03 10:53:00,46.0,8.0,-100.00,NE,55,17.0,24.0,21,-99.99,,,-99.99,,2013-01-03 18:53:00,
2013-01-03 11:02:00,45.0,6.0,-100.00,NE,48,21.0,29.0,20,-99.99,,,-99.99,,2013-01-03 19:02:00,
2013-01-03 11:12:00,45.0,7.0,-100.00,NE,37,20.0,28.0,21,-99.99,,,-99.99,,2013-01-03 19:12:00,
2013-01-03 11:55:00,47.0,8.0,-100.00,ENE,58,15.0,23.0,20,-99.99,,,-99.99,,2013-01-03 19:55:00,
2013-01-03 12:02:00,46.0,7.0,-100.00,NE,35,15.0,25.0,20,-99.99,,,-99.99,,2013-01-03 20:02:00,
2013-01-03 12:12:00,47.0,8.0,-100.00,NE,42,15.0,23.0,20,-99.99,,,-99.99,,2013-01-03 20:12:00,
2013-01-03 12:22:00,46.0,7.0,-100.00,NE,46,17.0,27.0,20,-99.99,,,-99.99,,2013-01-03 20:22:00,
2013-01-03 12:33:00,47.0,8.0,-100.00,NE,35,15.0,23.0,20,-99.99,,,-99.99,,2013-01-03 20:33:00,
2013-01-03 12:42:00,47.0,8.0,-100.00,NE,47,14.0,22.0,20,-99.99,,,-99.99,,2013-01-03 20:42:00,
2013-01-03 12:53:00,47.0,7.0,-100.00,NE,46,14.0,23.0,19,-99.99,,,-99.99,,2013-01-03 20:53:00,
2013-01-03 13:02:00,47.0,8.0,-100.00,NNE,33,13.0,21.0,20,-99.99,,,-99.99,,2013-01-03 21:02:00,
2013-01-03 13:12:00,47.0,8.0,-100.00,NE,43,14.0,20.0,20,-99.99,,,-99.99,,2013-01-03 21:12:00,
2013-01-03 13:22:00,47.0,8.0,-100.00,NE,51,14.0,21.0,20,-99.99,,,-99.99,,2013-01-03 21:22:00,
2013-01-03 13:34:00,47.0,8.0,-100.00,NE,54,11.0,19.0,20,-99.99,,,-99.99,,2013-01-03 21:34:00,
2013-01-03 13:46:00,47.0,9.0,-100.00,NE,49,13.0,19.0,21,-99.99,,,-99.99,,2013-01-03 21:46:00,
2013-01-03 13:52:00,47.0,8.0,-100.00,NNE,32,13.0,19.0,20,-99.99,,,-99.99,,2013-01-03 21:52:00,
2013-01-03 14:02:00,47.0,8.0,-100.00,NE,49,13.0,21.0,20,-99.99,,,-99.99,,2013-01-03 22:02:00,
2013-01-03 14:12:00,47.0,7.0,-100.00,NE,39,14.0,20.0,19,-99.99,,,-99.99,,2013-01-03 22:12:00,
2013-01-03 14:22:00,47.0,7.0,-100.00,NE,36,14.0,22.0,19,-99.99,,,-99.99,,2013-01-03 22:22:00,
2013-01-03 14:32:00,47.0,7.0,-100.00,ENE,60,14.0,22.0,19,-99.99,,,-99.99,,2013-01-03 22:32:00,
2013-01-03 14:42:00,47.0,7.0,-100.00,ENE,60,14.0,22.0,19,-99.99,,,-99.99,,2013-01-03 22:42:00,
2013-01-03 14:52:00,47.0,8.0,-100.00,NE,52,14.0,20.0,20,-99.99,,,-99.99,,2013-01-03 22:52:00,
2013-01-03 15:02:00,46.0,7.0,-100.00,NE,38,15.0,23.0,20,-99.99,,,-99.99,,2013-01-03 23:02:00,
2013-01-03 15:12:00,46.0,7.0,-100.00,NE,51,13.0,21.0,20,-99.99,,,-99.99,,2013-01-03 23:12:00,
2013-01-03 15:22:00,47.0,9.0,-100.00,NE,54,13.0,21.0,21,-99.99,,,-99.99,,2013-01-03 23:22:00,
2013-01-03 15:32:00,46.0,7.0,-100.00,NE,44,14.0,22.0,20,-99.99,,,-99.99,,2013-01-03 23:32:00,
2013-01-03 15:42:00,46.0,8.0,-100.00,NE,53,13.0,21.0,21,-99.99,,,-99.99,,2013-01-03 23:42:00,
2013-01-03 15:52:00,46.0,9.0,-100.00,NE,51,12.0,17.0,22,-99.99,,,-99.99,,2013-01-03 23:52:00,
2013-01-03 16:02:00,46.0,9.0,-100.00,NE,50,13.0,21.0,22,-99.99,,,-99.99,,2013-01-04 00:02:00,
2013-01-03 16:12:00,45.0,8.0,-100.00,NE,50,12.0,19.0,22,-99.99,,,-99.99,,2013-01-04 00:12:00,
2013-01-03 16:22:00,45.0,9.0,-100.00,NE,44,13.0,19.0,23,-99.99,,,-99.99,,2013-01-04 00:22:00,
2013-01-03 16:32:00,45.0,9.0,-100.00,ENE,63,10.0,16.0,23,-99.99,,,-99.99,,2013-01-04 00:32:00,
2013-01-03 16:42:00,44.0,9.0,-100.00,NE,54,11.0,16.0,23,-99.99,,,-99.99,,2013-01-04 00:42:00,
2013-01-03 16:52:00,44.0,8.0,-100.00,NE,50,13.0,18.0,22,-99.99,,,-99.99,,2013-01-04 00:52:00,
2013-01-03 17:02:00,44.0,8.0,-100.00,NE,53,11.0,16.0,22,-99.99,,,-99.99,,2013-01-04 01:02:00,
2013-01-03 17:12:00,43.0,7.0,-100.00,NE,53,9.0,13.0,22,-99.99,,,-99.99,,2013-01-04 01:12:00,
2013-01-03 17:22:00,42.0,7.0,-100.00,NE,53,11.0,16.0,23,-99.99,,,-99.99,,2013-01-04 01:22:00,
2013-01-03 17:32:00,42.0,8.0,-100.00,NE,55,10.0,14.0,24,-99.99,,,-99.99,,2013-01-04 01:32:00,
2013-01-03 17:42:00,41.0,8.0,-100.00,NE,55,9.0,13.0,25,-99.99,,,-99.99,,2013-01-04 01:42:00,
2013-01-03 17:52:00,40.0,7.0,-100.00,NE,50,10.0,17.0,25,-99.99,,,-99.99,,2013-01-04 01:52:00,
2013-01-03 18:02:00,40.0,7.0,-100.00,NE,47,12.0,16.0,25,-99.99,,,-99.99,,2013-01-04 02:02:00,
2013-01-03 18:12:00,40.0,7.0,-100.00,NE,47,12.0,15.0,25,-99.99,,,-99.99,,2013-01-04 02:12:00,
2013-01-03 18:22:00,40.0,7.0,-100.00,NE,51,11.0,16.0,25,-99.99,,,-99.99,,2013-01-04 02:22:00,
2013-01-03 18:32:00,40.0,7.0,-100.00,NE,49,10.0,15.0,25,-99.99,,,-99.99,,2013-01-04 02:32:00,
2013-01-03 18:42:00,40.0,7.0,-100.00,NE,49,10.0,15.0,25,-99.99,,,-99.99,,2013-01-04 02:42:00,
2013-01-03 18:52:00,39.0,7.0,-100.00,NE,46,11.0,17.0,26,-99.99,,,-99.99,,2013-01-04 02:52:00,
2013-01-03 19:02:00,40.0,7.0,-100.00,NE,45,14.0,17.0,25,-99.99,,,-99.99,,2013-01-04 03:02:00,
2013-01-03 19:12:00,40.0,5.0,-100.00,NE,39,15.0,22.0,23,-99.99,,,-99.99,,2013-01-04 03:12:00,
2013-01-03 19:22:00,41.0,5.0,-100.00,NE,42,13.0,21.0,22,-99.99,,,-99.99,,2013-01-04 03:22:00,
2013-01-03 19:32:00,40.0,7.0,-100.00,NE,46,13.0,18.0,25,-99.99,,,-99.99,,2013-01-04 03:32:00,
2013-01-03 19:42:00,40.0,7.0,-100.00,NE,46,13.0,18.0,25,-99.99,,,-99.99,,2013-01-04 03:42:00,
2013-01-03 19:52:00,40.0,7.0,-100.00,NE,41,13.0,17.0,25,-99.99,,,-99.99,,2013-01-04 03:52:00,
2013-01-03 20:02:00,40.0,6.0,-100.00,NE,43,14.0,20.0,24,-99.99,,,-99.99,,2013-01-04 04:02:00,
2013-01-03 20:12:00,40.0,6.0,-100.00,NE,46,12.0,18.0,24,-99.99,,,-99.99,,2013-01-04 04:12:00,
2013-01-03 20:22:00,40.0,6.0,-100.00,NE,43,11.0,17.0,24,-99.99,,,-99.99,,2013-01-04 04:22:00,
2013-01-03 20:32:00,40.0,5.0,-100.00,NE,42,11.0,15.0,23,-99.99,,,-99.99,,2013-01-04 04:32:00,
2013-01-03 20:42:00,40.0,5.0,-100.00,NE,42,11.0,15.0,23,-99.99,,,-99.99,,2013-01-04 04:42:00,
2013-01-03 20:52:00,41.0,5.0,-100.00,NE,56,10.0,15.0,22,-99.99,,,-99.99,,2013-01-04 04:52:00,
2013-01-03 21:03:00,41.0,5.0,-100.00,NE,56,10.0,15.0,22,-99.99,,,-99.99,,2013-01-04 05:03:00,
2013-01-03 21:12:00,41.0,5.0,-100.00,ENE,59,10.0,14.0,22,-99.99,,,-99.99,,2013-01-04 05:12:00,
2013-01-03 21:22:00,40.0,4.0,-100.00,ENE,59,10.0,14.0,22,-99.99,,,-99.99,,2013-01-04 05:22:00,
2013-01-03 21:33:00,40.0,4.0,-100.00,ENE,59,9.0,13.0,22,-99.99,,,-99.99,,2013-01-04 05:33:00,
2013-01-03 21:42:00,40.0,4.0,-100.00,ENE,59,9.0,13.0,22,-99.99,,,-99.99,,2013-01-04 05:42:00,
2013-01-03 21:52:00,40.0,4.0,-100.00,ENE,58,9.0,13.0,22,-99.99,,,-99.99,,2013-01-04 05:52:00,
2013-01-03 22:02:00,40.0,5.0,-100.00,ENE,60,9.0,14.0,23,-99.99,,,-99.99,,2013-01-04 06:02:00,
2013-01-03 22:12:00,40.0,5.0,-100.00,ENE,67,9.0,14.0,23,-99.99,,,-99.99,,2013-01-04 06:12:00,
2013-01-03 22:22:00,40.0,4.0,-100.00,ENE,67,10.0,15.0,22,-99.99,,,-99.99,,2013-01-04 06:22:00,
2013-01-03 22:32:00,40.0,4.0,-100.00,ENE,66,10.0,14.0,22,-99.99,,,-99.99,,2013-01-04 06:32:00,
2013-01-03 22:42:00,41.0,4.0,-100.00,ENE,58,10.0,16.0,21,-99.99,,,-99.99,,2013-01-04 06:42:00,
2013-01-03 22:52:00,40.0,4.0,-100.00,NE,51,10.0,14.0,22,-99.99,,,-99.99,,2013-01-04 06:52:00,
2013-01-03 23:02:00,40.0,4.0,-100.00,NE,47,9.0,14.0,22,-99.99,,,-99.99,,2013-01-04 07:02:00,
2013-01-03 23:12:00,40.0,3.0,-100.00,NE,47,8.0,11.0,21,-99.99,,,-99.99,,2013-01-04 07:12:00,
2013-01-03 23:22:00,40.0,4.0,-100.00,NNE,33,8.0,12.0,22,-99.99,,,-99.99,,2013-01-04 07:22:00,
2013-01-03 23:32:00,40.0,4.0,-100.00,NNE,28,9.0,12.0,22,-99.99,,,-99.99,,2013-01-04 07:32:00,
2013-01-03 23:42:00,40.0,4.0,-100.00,NNE,29,10.0,15.0,22,-99.99,,,-99.99,,2013-01-04 07:42:00,
2013-01-03 23:52:00,39.0,4.0,-100.00,NNE,27,10.0,13.0,23,-99.99,,,-99.99,,2013-01-04 07:52:00,